STARLINK-11337 [DTC]

Last updated on Thu Nov 21 2024 00:02:06 GMT+0000 (Coordinated Universal Time)

1 61940U 24209B 24325.66668981 -.00927605 00000+0 -35542-2 0 9994 2 61940 53.1666 191.9142 0000429 84.1980 300.6013 15.88820296 2229
UTC large
Height (km)
Speed (km/s)
/
Latitude / Longitude
Inclination (degrees)
Orbital Period (minutes)
Azimuth
Elevation
Range (km)
Doppler Factor

Next 0 passes for location: London (51.5072 / 0.1276)

Sorry there are no passes over London.